Location: Oshawa
(43.9000°N, 78.8670°W)
Time: 23:43:12
(UTC-04:00)

Cosmos 1408 Rocket - Visible Passes

Search period start: 26 July 2016 00:00
Search period end: 05 August 2016 00:00
Orbit: 601 x 632 km, 82.6° (Epoch: 26 July)

Date Brightness Start Highest point End Pass type
(mag) Time Alt. Az. Time Alt. Az. Time Alt. Az.
26 Jul 5.6 03:22:30 10° NNE 03:26:08 25° ENE 03:29:47 10° SE visible
26 Jul 4.5 05:00:07 10° NNW 05:03:55 30° W 05:07:45 10° SSW visible
27 Jul 4.6 03:38:36 10° N 03:42:48 43° ENE 03:46:47 11° SSE visible
27 Jul 5.2 05:17:23 10° NW 05:20:14 17° W 05:23:06 10° SW visible
28 Jul 3.6 03:54:58 10° N 03:59:23 80° E 04:02:31 19° SSE visible
29 Jul 6.2 02:35:14 10° NE 02:37:42 15° ENE 02:40:09 10° ESE visible
29 Jul 3.7 04:11:34 10° NNW 04:15:52 55° W 04:18:17 24° SSW visible
30 Jul 5.5 02:50:50 10° NNE 02:54:28 25° ENE 02:57:04 15° ESE visible
30 Jul 4.5 04:28:24 10° NNW 04:32:16 31° W 04:34:07 22° SW visible
31 Jul 4.6 03:06:56 10° N 03:11:09 42° ENE 03:12:57 28° SE visible
31 Jul 5.2 04:45:39 10° NW 04:48:36 18° W 04:50:00 15° WSW visible
01 Aug 3.6 03:23:18 10° N 03:27:43 78° E 03:28:52 49° SSE visible
02 Aug 6.1 02:03:37 10° NE 02:06:01 14° ENE 02:07:47 12° E visible
02 Aug 3.6 03:39:53 10° NNW 03:44:13 57° W 03:44:50 52° SW visible
03 Aug 5.4 02:19:11 10° NNE 02:22:48 24° ENE 02:23:46 22° E visible
03 Aug 4.4 03:56:42 10° NNW 04:00:37 32° W 04:00:50 31° W visible
04 Aug 4.5 02:35:16 10° N 02:39:28 41° ENE 02:39:48 41° E visible
04 Aug 5.2 04:13:55 10° NW 04:16:52 18° W 04:16:52 18° W visible
